Hovedside
METAR-TAF:

METAR-TAF

Lufthavner :

Ventspils, Latvia

breddegrad: 57-21-28N, lengdegrad: 021-32-39E, høyde over havet: 6 m

Gjeldene værobservasjon

Denne rapporten ble laget for 13 minutter siden, klokken 21:50 UTC
Vind 2 kt fra Øst-sørøst
Temperatur 15°C
Luftfuktighet 100%
Trykk 1012 hPa
Sikt: 1100 m
Delvis dekket av tåke

METAR: EVVA 182150Z AUTO 12002KT 1100 PRFG NSC 15/15 Q1012

Tid: 01:03 (22:03 UTC)


TAF: fraværende

Værobservasjoner og værvarsel for over 4000 flyplasser (METAR- og TAF-rapporter).

Tilgjengelige stasjoner er representert av de røde og gule prikkene på kartet.

Hold musepekeren over prikken for å se navnet på stasjonen.

Klikk så for å se værobservasjoner og -varsler.

For å forandre kartet kan du klikke på den grønne knappen med svart kryss for å zoome inn, på den grønne knappen med strek for å zoome ut, eller på de grønne pilene for å se tilstøtende kart.


METAR-TAF: